Theta_e
314 314 314 314 314 314 314 314 314 314 314 314 314 314 314 314 314 314 313 313 313 313 313 313 313 313 313 313 313 313 313 313 312 312 312 312 312 312 312 312 312 312 311 311 311 311 310 310 310 310 310 309 309 309 308 306 306 306 307 308 309 309 310 310 310 310 310 310 310 309 309 309 309 310 310 310 311 311 311 311 311 310 309 309 307
314 314 314 314 314 314 314 314 314 314 314 314 314 314 314 313 313 313 313 313 313 313 313 313 312 312 312 312 312 312 312 312 312 312 312 312 312 312 312 312 311 311 311 311 311 311 310 310 310 310 310 309 309 309 309 308 306 306 306 307 307 308 309 309 309 309 310 309 309 309 309 309 309 309 309 309 310 310 309 309 309 309 309 308 306
314 314 314 314 314 314 314 313 313 313 313 313 313 313 313 313 313 313 312 312 312 312 312 312 312 312 312 312 312 312 312 312 312 312 311 312 311 311 311 311 311 311 311 311 311 310 310 310 311 311 310 309 309 309 309 309 308 306 306 305 305 306 306 307 307 308 308 308 308 308 308 308 308 309 309 309 308 307 307 308 307 307 307 307 305
314 314 313 314 313 313 313 313 313 313 312 312 312 312 312 312 312 312 312 312 312 312 312 312 311 311 311 311 311 311 311 311 311 311 311 311 311 311 311 311 311 311 311 310 310 310 310 310 310 310 310 310 310 310 310 309 308 307 306 305 305 305 305 306 307 307 307 308 309 308 308 308 308 308 308 307 307 306 306 306 306 305 305 304 303
313 313 313 313 313 313 313 313 312 312 312 312 312 312 312 312 312 312 312 312 312 312 311 311 311 311 311 311 311 311 311 311 311 311 311 311 311 311 311 311 311 311 310 310 310 310 309 309 309 309 309 309 309 310 309 309 308 308 307 306 305 305 305 305 306 307 307 307 308 308 307 307 307 307 307 307 306 306 305 305 305 304 303 302 301
313 313 312 312 313 312 312 312 312 311 311 311 311 311 311 311 311 311 310 310 310 310 310 310 309 309 309 309 309 309 309 309 309 309 309 309 309 309 309 309 308 308 308 308 308 308 308 308 309 309 309 309 309 309 308 308 308 307 307 307 306 305 304 304 305 305 306 306 306 306 306 306 307 307 306 306 305 305 304 303 303 301 300 300 300
312 312 312 312 312 311 311 311 310 310 310 310 310 310 310 309 309 309 309 308 307 307 306 306 305 305 305 305 305 304 304 305 304 304 304 304 304 304 304 304 304 304 304 305 305 305 305 306 306 307 307 308 308 308 308 307 307 307 306 306 305 304 303 303 303 304 304 304 305 305 305 305 305 305 305 304 303 303 302 300 301 301 301 300 299
311 310 310 310 310 310 309 309 309 308 308 308 308 308 308 307 307 306 306 305 304 304 303 303 303 302 302 302 302 302 302 302 302 302 302 302 302 302 302 302 302 302 302 302 302 302 303 303 303 304 304 305 306 307 307 307 307 306 306 305 304 303 302 302 303 303 303 303 303 303 303 304 303 303 303 303 302 302 302 301 302 302 301 299 298
308 308 308 308 308 307 307 306 305 305 305 305 305 305 304 304 304 303 303 303 303 303 303 302 302 302 302 302 301 301 301 301 301 300 300 300 300 300 300 300 300 300 300 301 301 301 301 301 301 302 302 302 303 304 305 306 306 306 306 305 303 302 302 302 302 302 302 302 302 302 302 302 302 302 302 303 302 303 303 301 300 300 298 297 296
306 306 306 306 305 304 304 303 302 302 302 302 302 302 302 302 302 302 302 303 303 303 302 302 302 301 301 301 301 300 300 300 300 299 299 299 299 299 299 299 299 299 299 299 299 299 299 299 300 300 300 300 300 301 302 304 305 306 306 306 304 302 301 301 302 302 302 302 301 301 301 301 302 301 301 302 302 301 300 299 299 298 297 294 293
305 304 304 303 303 302 301 301 301 301 301 301 301 301 302 302 302 303 303 303 303 302 301 300 300 299 299 299 299 299 298 298 298 297 297 297 297 297 297 297 297 297 297 297 298 298 298 298 298 298 298 298 298 298 299 300 301 303 304 305 305 303 301 301 301 301 302 302 301 301 300 301 301 301 300 301 301 300 299 299 299 298 296 294 293
304 303 302 302 301 301 301 301 301 301 301 301 302 302 302 303 303 303 303 303 302 300 299 298 298 298 297 297 297 297 297 296 296 296 296 295 295 295 295 295 295 295 295 296 296 296 296 296 296 296 296 297 297 297 297 298 298 300 302 304 304 303 301 300 300 300 300 301 301 300 300 300 300 300 300 300 300 300 300 299 298 297 296 295 295
302 301 301 301 300 300 301 301 301 301 302 302 302 302 303 302 302 301 301 300 299 298 297 297 297 296 296 296 296 296 296 296 296 296 295 295 295 295 295 295 295 295 295 295 295 295 295 295 295 295 296 296 296 296 296 297 297 298 300 302 303 303 302 300 300 299 299 300 300 300 300 300 300 300 300 300 299 299 299 298 298 297 295 295 296
300 300 300 300 300 301 301 301 301 302 302 302 302 301 301 300 299 298 297 297 296 296 296 296 296 296 296 296 296 296 296 295 295 295 295 295 295 295 295 295 294 295 295 294 295 295 295 295 295 295 295 295 295 296 296 296 297 298 299 301 302 302 302 301 300 299 299 299 299 299 300 300 300 299 300 299 299 299 298 298 298 298 297 297 296
300 300 300 300 301 301 301 301 301 301 300 300 299 298 297 297 296 296 296 296 296 295 295 295 295 295 295 295 295 296 295 295 295 295 295 294 294 294 294 294 294 294 294 294 294 294 294 294 294 294 295 295 295 295 296 296 297 298 299 300 301 301 301 301 300 298 298 299 299 299 299 299 300 300 299 299 298 298 298 298 297 296 296 295 294
300 300 300 300 300 300 300 300 299 298 298 297 297 296 296 296 295 295 295 295 295 295 295 295 295 295 295 295 295 295 295 295 295 295 294 294 294 294 293 294 294 294 294 294 294 294 294 294 294 294 294 294 294 295 295 296 297 298 298 299 300 300 300 301 299 297 298 299 299 299 299 299 299 299 299 298 298 298 297 296 295 294 292 292 291
299 299 299 299 299 299 298 297 297 296 296 296 296 296 295 295 295 295 295 295 295 295 295 295 295 295 295 295 295 295 295 295 294 294 294 293 293 293 293 293 293 293 293 294 294 294 294 294 294 294 294 294 294 294 295 296 297 297 298 298 298 298 299 299 297 297 298 298 298 299 299 299 299 299 298 297 297 297 295 295 294 293 291 290 289
298 298 298 298 297 297 296 296 295 295 295 295 295 295 295 294 294 294 294 294 294 294 294 294 295 294 294 294 294 294 294 295 294 293 293 293 292 292 292 292 292 293 293 293 293 293 294 294 294 294 294 294 294 294 295 296 297 297 296 296 295 296 298 298 296 296 297 297 298 298 298 298 299 298 298 297 296 295 295 294 294 293 291 291 290
297 297 297 296 296 295 295 295 295 294 294 294 294 294 294 294 294 294 294 294 294 294 294 294 294 294 293 293 293 293 293 294 293 293 292 292 292 291 291 291 292 292 292 292 293 293 293 293 293 294 294 294 294 295 295 296 296 296 296 295 294 296 298 297 295 295 296 296 297 297 297 298 298 297 297 296 295 295 294 294 293 292 292 291 290
296 296 296 295 295 294 294 294 294 294 294 294 293 293 293 293 293 293 293 293 293 293 293 292 293 293 293 292 293 292 292 293 293 293 292 292 292 291 290 290 291 291 292 292 292 293 292 293 293 293 294 294 295 295 296 296 295 295 294 294 294 296 297 296 294 295 295 295 296 296 296 297 296 296 296 295 294 294 293 293 292 292 292 291 290
295 295 295 294 294 294 294 294 294 293 293 293 293 293 293 292 292 292 292 292 292 292 292 292 292 292 292 292 292 292 292 292 292 292 291 291 291 290 290 290 290 291 292 292 292 292 292 292 292 293 293 294 295 296 296 296 295 294 293 293 294 295 295 294 294 295 294 294 294 294 295 295 295 295 295 294 293 293 292 292 291 291 291 291 290
294 294 294 294 294 294 293 293 293 293 293 292 292 292 291 291 291 291 291 291 291 291 291 291 291 291 291 291 291 291 291 291 291 291 291 290 290 290 290 289 290 291 292 292 292 292 293 293 293 293 293 294 295 295 295 295 295 294 293 293 293 293 293 293 294 294 293 293 294 293 293 294 294 294 294 293 292 292 291 291 290 290 291 290 290
294 294 293 293 293 293 293 292 292 292 292 291 291 291 291 291 291 291 290 290 290 290 290 290 290 290 290 290 290 290 290 290 290 290 290 290 290 290 290 290 290 291 291 292 292 292 292 293 293 293 294 294 295 294 294 295 295 294 293 292 292 292 293 293 293 293 293 293 293 292 293 293 293 293 293 292 292 291 291 290 290 290 290 289 289
293 293 293 293 293 292 292 291 291 291 291 290 290 290 290 290 290 290 290 290 290 290 290 289 289 289 289 289 290 290 290 290 290 290 290 290 290 290 290 291 291 291 291 291 291 292 292 293 293 293 294 294 294 293 294 294 294 294 293 293 293 293 293 292 292 292 292 292 292 292 292 292 292 292 292 291 291 290 290 290 289 289 289 288 288
293 293 292 292 291 291 291 290 290 290 290 290 290 290 290 290 290 289 289 289 289 289 289 289 289 289 289 289 289 289 289 289 289 290 290 291 290 290 291 291 291 291 290 290 291 291 291 292 292 293 293 293 292 292 293 293 293 293 293 293 293 293 293 292 292 292 291 291 292 292 292 292 292 291 291 290 289 289 289 289 288 288 288 287 287
292 292 291 291 290 290 290 290 290 290 290 289 289 289 289 289 289 289 289 289 288 288 288 288 288 288 288 288 288 289 289 289 289 289 290 291 290 290 291 291 291 290 289 289 289 289 290 291 291 291 291 291 290 290 290 291 291 292 292 292 293 293 293 293 292 291 291 291 291 291 291 291 291 290 289 288 288 288 288 288 288 288 287 287 287
291 290 290 290 290 290 289 289 289 289 289 289 289 289 289 288 288 288 288 288 288 288 288 288 288 288 288 288 288 289 289 289 289 290 290 291 290 289 288 288 288 288 287 287 287 287 287 288 288 288 288 288 288 288 288 289 290 291 291 292 292 293 293 293 292 291 290 291 290 291 291 290 290 289 288 288 288 288 288 288 288 287 286 286 287
290 289 289 289 289 289 289 289 289 289 289 289 288 288 288 288 288 288 288 287 287 287 287 288 288 288 288 288 288 289 289 290 290 290 290 289 288 287 285 285 285 285 286 286 286 286 286 286 287 287 287 288 288 288 288 289 289 290 291 292 292 293 293 292 291 290 290 290 290 290 290 289 289 288 287 287 287 287 287 287 287 287 287 286 286
289 289 289 289 289 289 289 288 288 288 288 288 288 288 288 287 287 287 287 287 287 287 287 287 287 287 287 287 287 287 288 289 290 289 289 287 286 284 284 284 284 285 285 285 285 286 286 286 287 288 288 288 288 288 288 289 289 290 290 291 291 291 291 290 290 289 289 289 289 289 289 288 288 287 287 287 286 287 287 286 286 286 286 286 286
289 289 289 288 288 288 288 288 288 288 287 287 287 287 287 287 287 287 287 287 287 287 287 287 287 287 287 287 287 286 286 287 288 288 287 286 284 283 283 284 284 284 284 285 285 286 286 287 287 288 288 288 288 288 288 289 289 289 289 289 289 289 289 289 289 289 289 289 289 289 288 288 287 287 286 286 286 286 286 286 286 286 286 286 286
288 288 288 288 288 288 287 287 287 287 287 287 287 287 287 287 287 287 287 287 287 287 287 287 287 286 286 286 287 287 286 285 284 284 284 284 283 283 284 283 283 284 284 285 286 286 286 287 287 288 288 288 288 288 288 289 289 288 288 288 288 288 288 288 288 288 288 288 288 288 288 287 287 286 286 286 286 286 285 285 285 285 286 286 287
288 288 288 288 287 287 287 287 287 287 287 287 286 286 286 286 287 287 287 286 286 286 287 287 287 286 284 284 284 285 286 285 283 282 282 282 282 283 284 284 284 284 284 285 286 286 286 287 287 287 288 288 288 288 288 288 288 288 288 288 288 288 288 288 288 288 288 288 288 288 287 287 287 286 286 286 285 285 285 284 284 284 285 285 286
288 287 287 287 287 287 287 287 287 286 286 286 286 285 285 285 286 286 287 286 286 286 286 286 287 287 286 284 282 282 283 284 283 283 282 282 282 282 283 284 284 284 285 285 286 286 286 287 287 287 287 288 288 288 288 288 288 288 288 287 287 287 287 287 287 287 287 287 287 287 287 287 286 286 285 285 285 285 284 283 283 283 284 285 286
287 287 287 287 287 286 286 286 286 286 285 285 285 285 285 285 285 285 285 286 286 286 286 286 286 286 287 286 284 282 281 281 282 283 282 281 281 282 282 283 284 284 285 285 285 286 286 286 287 287 287 287 288 287 287 288 287 287 287 287 287 287 287 287 287 287 287 287 287 287 287 286 286 286 285 284 284 284 283 283 283 284 285 286 287
287 287 286 286 286 286 286 285 285 285 285 285 284 284 284 284 284 284 284 284 285 285 286 286 285 285 285 286 286 285 283 281 281 281 281 281 282 282 282 283 284 284 284 285 285 285 286 286 286 286 286 287 287 287 287 287 287 287 287 287 287 287 287 287 286 286 286 287 287 287 286 286 285 285 285 284 284 283 282 283 284 284 285 287 287
286 286 286 286 285 285 285 285 284 284 284 284 283 283 283 283 283 283 283 282 283 283 284 285 286 285 285 284 284 284 283 282 280 280 280 281 282 282 282 283 283 284 284 284 284 285 285 285 285 286 286 286 286 286 287 287 286 286 286 286 286 287 286 286 286 286 286 286 286 286 286 285 285 285 284 284 284 283 283 284 284 285 286 287 287
286 286 285 285 285 284 284 284 283 283 283 283 282 282 282 282 281 281 281 281 281 282 282 283 284 285 285 285 283 282 283 282 280 280 280 281 281 282 282 282 283 283 283 284 284 284 284 285 285 285 285 285 286 286 286 286 286 286 286 286 286 286 286 286 286 286 286 286 286 286 286 285 285 284 284 283 283 283 283 283 283 284 285 286 286
285 285 284 284 284 283 283 283 282 282 282 281 281 281 281 281 280 280 280 280 280 280 281 282 282 282 283 283 282 281 281 281 281 280 281 281 281 281 281 282 282 282 283 283 283 283 284 284 284 285 285 285 285 285 285 285 285 286 286 286 286 286 286 286 285 285 286 286 286 286 285 285 285 284 284 283 283 282 282 283 283 285 285 285 284
284 284 284 283 283 282 282 282 281 281 281 280 280 280 280 280 280 279 279 279 280 280 280 280 280 280 279 280 280 279 279 279 280 280 281 281 281 281 281 282 282 282 282 283 283 283 283 284 284 284 284 285 285 285 285 285 285 285 285 285 285 285 285 285 285 285 285 285 285 285 285 285 285 284 283 283 282 282 282 283 285 286 286 284 283
284 283 282 282 282 281 281 281 280 280 280 279 279 279 279 279 279 279 279 279 279 279 278 277 278 279 278 278 278 277 277 278 279 280 280 281 281 281 281 281 282 282 282 282 283 283 283 284 284 284 285 285 285 285 285 285 285 285 285 285 285 285 285 285 285 285 285 285 284 284 284 284 284 283 283 282 282 283 284 285 286 286 285 284 283
283 282 282 281 281 280 280 280 279 279 279 278 278 278 278 278 277 277 277 277 277 277 277 277 277 278 278 278 278 277 277 278 279 280 280 280 280 281 281 281 281 282 282 282 283 283 283 284 284 284 284 284 284 284 284 284 284 284 284 284 284 284 284 284 284 285 285 284 284 284 284 284 283 283 283 283 283 284 285 286 285 284 284 283 283
282 281 281 280 280 280 279 279 278 278 278 277 277 277 276 276 276 276 276 276 275 276 276 277 277 278 278 278 278 278 278 278 279 279 280 280 280 280 281 281 281 281 281 282 282 283 283 283 284 284 284 284 284 284 284 284 284 284 284 284 284 284 284 284 284 284 284 284 283 283 283 283 283 284 284 284 284 285 286 286 285 284 284 283 283
281 280 280 279 279 278 278 278 277 277 277 276 276 276 275 275 275 275 275 275 275 275 275 276 277 277 278 278 278 278 278 279 279 279 280 280 280 280 280 280 281 281 281 281 282 282 283 283 283 283 283 283 283 283 283 283 283 283 283 283 283 284 284 284 283 284 284 284 283 283 283 283 284 284 285 285 285 286 286 285 284 284 283 282 281
280 279 279 278 278 277 277 277 277 276 276 276 275 275 275 275 275 275 275 274 274 274 274 275 276 276 277 278 278 278 278 278 279 279 279 279 279 279 279 280 280 280 281 281 281 282 282 283 283 283 283 283 283 283 283 283 283 283 283 283 283 283 283 283 283 284 284 284 284 284 284 284 284 285 285 286 286 285 285 284 283 282 282 281 280
279 278 278 277 277 276 276 276 276 275 275 275 275 275 274 274 274 274 274 274 273 273 274 274 275 275 276 277 277 277 278 278 278 279 279 279 279 279 279 279 279 280 280 280 280 281 281 282 282 282 282 282 283 283 283 283 283 283 283 283 283 283 283 283 283 283 284 284 284 285 285 285 285 286 286 285 285 284 283 283 282 281 281 280 279
277 277 277 276 276 276 276 275 275 275 275 275 275 275 274 274 274 273 273 273 273 273 273 273 274 274 275 276 276 277 277 277 278 278 278 279 279 279 279 279 279 279 279 279 280 280 280 281 281 282 282 282 283 283 283 283 283 283 283 283 283 283 283 283 283 283 284 284 284 285 285 285 285 285 285 284 283 283 282 282 281 281 280 279 278
277 276 276 276 276 275 275 275 275 275 274 274 274 274 274 274 274 273 273 273 273 272 273 273 273 274 274 275 275 276 276 276 277 277 277 278 278 278 278 278 278 278 279 279 279 279 280 280 280 281 281 282 282 282 283 283 283 283 282 282 282 283 283 283 283 283 284 284 285 285 285 285 284 284 283 283 282 282 281 281 280 279 279 278 278
276 276 276 275 275 275 275 275 274 274 274 274 274 274 274 274 273 273 273 273 272 272 272 272 273 273 274 274 274 275 275 275 275 276 276 277 277 277 277 278 277 278 278 278 278 279 279 279 279 279 280 280 281 281 282 282 282 282 282 282 282 282 282 282 283 283 283 283 284 284 284 284 283 283 282 282 281 280 280 279 279 278 278 278 277
276 275 275 275 275 275 275 275 274 274 274 273 273 273 274 273 273 273 273 272 272 272 272 272 272 272 273 273 273 274 274 274 274 275 275 275 276 276 276 277 277 277 277 277 278 278 277 277 277 278 278 279 279 279 280 280 281 281 281 282 282 281 281 282 282 282 282 282 282 282 282 282 282 281 281 280 279 279 279 278 278 278 278 277 277
275 275 275 275 275 275 275 274 274 274 273 273 273 273 273 273 273 273 273 272 272 272 272 272 272 272 272 272 272 273 273 273 274 274 274 275 275 275 276 276 276 276 276 276 277 277 277 276 276 277 277 277 278 278 279 279 279 280 280 280 280 280 280 281 281 281 281 281 281 280 280 280 280 279 279 279 278 278 278 278 278 277 277 277 276
275 275 275 275 275 275 275 274 274 274 273 273 273 272 272 273 273 273 273 272 272 271 272 272 272 272 272 272 272 272 272 273 273 273 274 274 274 275 275 275 275 275 275 276 276 276 276 276 276 276 276 277 277 277 278 278 279 279 279 279 279 279 279 279 279 279 279 279 279 279 279 278 278 278 278 278 278 277 277 277 277 276 276 276 276
Wind_Speed
6 7 7 8 10 10 9 9 8 7 8 8 8 9 9 10 10 10 11 11 11 11 11 12 12 12 13 13 14 15 16 17 18 20 20 21 22 23 24 25 27 29 29 31 31 32 34 35 36 36 35 36 36 35 35 35 37 40 41 43 45 45 47 49 53 61 62 56 54 54 53 52 54 55 54 52 51 49 48 48 47 47 48 47 46
7 7 8 8 8 8 6 6 6 6 7 7 7 7 8 8 8 9 9 10 11 11 11 12 12 12 12 13 13 14 15 16 17 18 19 20 21 21 23 24 26 27 28 29 30 31 33 34 35 36 36 37 37 36 36 35 35 38 40 42 45 46 47 50 53 58 62 61 57 57 57 56 57 58 56 54 53 50 49 49 48 48 47 48 47
7 7 8 8 6 5 4 4 5 5 5 5 5 6 6 7 7 8 9 10 11 12 12 12 13 13 13 13 14 14 15 16 16 17 18 19 20 21 22 23 25 26 27 28 29 30 32 34 35 35 36 38 39 38 38 38 37 38 39 41 44 46 46 47 50 54 58 60 58 56 56 57 58 57 56 55 52 50 50 49 48 47 46 47 47
7 7 7 6 4 3 3 3 3 3 3 4 5 5 5 6 7 9 10 11 12 12 13 14 14 14 14 14 15 15 16 17 17 18 19 20 22 22 23 24 26 27 28 29 30 31 32 34 34 34 36 38 40 39 39 40 39 39 40 40 42 45 45 46 49 52 55 59 60 57 56 57 58 57 56 55 53 51 51 49 47 47 46 46 47
7 7 6 5 4 3 2 2 3 3 4 5 5 6 6 7 8 9 10 11 12 13 14 14 15 15 16 16 17 17 18 19 19 20 21 22 24 25 26 27 28 29 30 30 31 32 33 34 34 34 36 38 39 40 40 41 41 41 41 41 41 42 44 46 49 51 54 58 60 58 56 56 57 57 57 55 54 53 51 50 48 47 45 45 45
7 6 6 5 4 3 3 4 4 5 5 6 7 7 7 8 9 10 10 11 12 13 14 15 16 16 17 18 18 19 20 21 21 22 23 25 26 27 28 29 30 31 32 32 32 33 34 35 35 35 36 38 39 39 40 41 42 43 43 42 42 42 43 45 47 50 52 55 58 58 57 57 57 58 57 56 54 54 52 50 48 46 45 45 45
7 6 6 4 3 3 4 4 4 5 5 6 7 8 8 9 10 11 11 12 12 13 14 15 17 18 19 19 20 21 21 22 23 24 25 26 27 29 30 31 32 33 33 34 34 34 35 36 36 37 37 38 39 40 40 41 42 43 43 43 43 42 43 44 45 47 51 53 56 57 57 57 57 56 57 56 54 53 51 48 47 48 47 46 45
7 5 4 3 2 3 3 3 4 4 5 6 7 8 9 10 10 11 12 13 14 16 17 19 20 21 22 22 23 24 24 24 25 26 27 28 29 31 32 33 34 35 36 37 37 37 38 38 38 38 38 39 40 40 41 42 42 43 43 43 43 43 43 44 44 46 48 51 54 55 55 55 55 55 56 55 54 54 52 49 49 50 49 46 45
5 3 2 1 2 2 3 3 4 5 6 7 8 8 9 10 11 12 14 16 18 20 21 23 24 25 25 26 26 26 26 27 27 29 30 31 32 34 35 36 37 39 40 40 40 40 41 41 41 41 41 41 41 40 41 42 42 43 44 43 43 43 44 45 45 46 47 48 51 53 52 53 54 53 55 58 57 56 53 49 48 48 46 44 43
3 2 1 1 2 2 3 4 5 6 7 8 9 10 11 12 14 15 18 20 22 24 26 27 28 29 29 29 29 30 30 30 31 32 33 34 36 37 38 40 40 42 43 44 44 44 44 45 45 45 45 44 43 43 42 41 41 43 44 43 42 42 43 45 47 48 48 48 50 51 51 54 55 53 54 58 57 54 50 47 47 47 45 43 43
2 2 2 2 3 3 5 6 7 8 9 11 12 13 15 17 19 21 23 25 28 30 31 31 32 32 33 33 33 33 33 33 34 35 35 35 37 39 40 42 42 43 45 46 47 47 47 48 48 48 48 48 47 46 44 43 42 42 43 43 43 41 41 43 46 48 48 49 50 50 51 55 56 53 52 54 54 52 49 47 47 47 46 45 45
3 3 3 4 5 6 8 9 11 12 14 16 17 19 21 23 25 27 29 31 33 34 35 35 35 35 35 36 36 36 36 35 36 37 37 37 37 39 41 43 44 44 45 46 47 48 48 49 50 50 50 49 48 47 47 46 45 44 44 44 44 42 40 41 43 45 47 49 50 51 53 54 55 53 52 52 53 52 50 48 48 47 46 48 49
3 4 5 7 8 10 11 13 15 17 19 20 22 24 26 28 30 32 33 33 34 35 35 36 36 36 37 38 38 39 38 38 38 39 39 39 39 40 43 44 46 47 47 48 48 49 49 50 51 51 50 49 48 48 47 48 47 46 45 45 45 44 43 41 41 42 43 46 49 52 54 53 53 54 52 51 51 51 50 48 48 47 47 49 49
5 6 8 10 11 13 15 17 19 21 22 24 26 28 29 31 32 33 34 34 34 35 35 36 36 36 37 39 40 41 41 40 41 41 42 42 42 44 45 47 48 49 50 50 51 51 51 51 52 53 52 50 50 48 47 48 47 47 47 46 46 46 44 43 42 40 40 43 47 51 52 52 54 54 53 52 52 52 52 51 49 48 48 47 46
7 9 11 12 15 16 18 20 22 24 26 27 29 30 31 32 32 33 34 35 35 36 36 37 38 39 39 41 42 44 44 44 44 45 46 46 47 48 49 50 52 53 53 53 54 54 54 54 53 54 54 53 52 50 48 47 46 47 47 47 47 47 46 46 44 40 39 40 44 47 48 49 51 52 50 51 53 55 54 52 49 46 44 43 44
9 12 14 16 18 20 22 24 26 28 29 30 31 32 32 33 33 34 35 36 37 38 38 40 41 42 43 44 45 47 48 47 48 48 49 50 50 51 52 53 54 55 56 56 56 57 56 56 55 55 56 57 55 52 49 47 45 46 47 47 47 47 47 47 44 41 39 39 40 43 44 44 46 46 46 47 52 54 51 48 45 42 41 42 45
12 15 17 19 21 23 25 27 28 29 30 30 31 32 32 33 34 35 37 38 38 39 40 41 43 44 45 46 48 50 50 50 50 50 51 51 51 52 53 54 55 56 57 57 58 58 58 56 55 55 56 57 56 53 50 47 46 46 46 46 46 47 48 47 43 41 40 39 38 39 40 41 42 43 43 44 49 51 49 48 48 45 44 45 45
15 17 19 21 23 24 25 26 27 28 29 29 30 31 32 33 34 35 36 38 40 41 42 43 44 45 46 47 48 50 52 51 51 51 52 52 52 53 54 55 56 57 57 57 58 58 58 57 55 54 54 55 54 52 49 46 45 45 45 44 45 47 49 47 43 42 41 39 38 37 38 39 39 40 41 42 46 49 50 51 50 47 47 48 47
17 19 21 22 23 24 24 25 26 26 27 28 29 30 31 33 34 35 37 39 41 42 43 45 46 46 46 47 48 50 52 52 52 52 52 52 52 53 53 55 56 57 57 57 58 59 59 58 56 55 54 54 53 51 48 44 43 43 43 42 43 48 50 45 42 42 41 40 40 39 37 37 36 37 38 39 44 48 50 51 49 48 49 49 48
19 20 21 21 22 22 23 24 25 26 27 28 29 30 32 34 35 37 38 39 41 42 43 45 46 47 47 48 49 50 52 53 53 53 53 53 52 52 53 54 56 57 57 57 59 59 59 58 57 56 55 53 52 51 48 44 41 40 40 41 44 47 47 42 39 40 41 42 42 41 39 37 35 35 36 36 40 45 48 48 47 49 49 48 47
19 20 20 20 20 21 23 24 25 26 28 29 31 32 33 35 36 38 39 40 42 43 44 46 47 49 49 50 51 51 52 54 55 55 54 54 53 52 53 54 55 55 56 57 59 60 59 58 58 56 54 53 52 50 48 45 42 39 39 41 44 44 42 38 37 39 41 43 44 43 42 39 37 36 35 35 37 41 44 46 46 47 48 46 46
19 19 19 20 21 22 23 24 26 27 29 30 32 33 34 35 37 38 40 41 43 44 45 47 48 50 51 52 52 53 53 54 54 55 55 54 53 52 52 53 53 53 54 56 58 59 59 59 58 56 54 53 51 49 47 46 43 41 40 41 42 41 38 37 37 39 41 44 45 45 44 42 39 37 36 35 36 38 40 43 44 45 46 46 46
19 19 20 20 21 23 24 25 27 28 30 31 33 34 35 36 38 39 41 42 44 45 47 48 50 52 53 54 55 55 54 54 54 55 55 55 54 53 52 52 53 52 52 54 56 58 58 58 58 56 55 53 51 48 47 46 45 43 42 40 40 39 38 37 38 40 42 44 46 47 46 43 41 38 36 35 35 35 37 39 41 43 44 45 46
19 20 21 22 23 24 26 27 28 29 30 32 33 35 36 38 39 41 42 44 46 47 49 50 51 53 55 56 57 57 57 56 55 55 55 55 54 53 53 53 53 52 50 51 53 55 56 57 57 56 55 54 50 46 45 45 45 44 42 40 38 38 37 38 39 40 41 43 45 46 46 44 42 40 37 34 32 33 35 37 39 41 43 45 44
21 22 23 24 25 26 27 27 29 30 31 33 34 36 38 39 41 42 44 45 47 48 50 51 52 54 56 57 58 59 58 58 57 56 55 55 54 53 53 52 52 51 49 50 52 53 54 55 55 55 55 53 49 45 44 44 44 43 42 40 38 37 38 38 39 39 41 43 44 45 46 45 43 39 35 32 31 32 35 39 41 42 43 43 42
22 22 23 24 25 26 28 29 30 31 32 34 35 37 39 41 42 44 45 46 47 49 50 51 52 54 55 56 58 59 59 59 59 58 57 56 55 53 51 50 50 49 49 49 50 50 51 52 53 52 52 51 49 45 43 42 42 42 42 41 39 38 39 40 40 41 42 43 43 44 44 44 42 38 33 31 32 34 37 39 41 41 42 42 41
22 22 23 25 26 27 29 30 32 33 34 36 37 38 39 41 43 44 46 47 48 49 50 52 53 54 55 56 58 59 59 60 60 59 58 56 54 51 48 47 47 47 46 45 44 45 48 51 51 49 48 49 49 48 45 42 41 41 41 41 40 40 40 41 41 41 42 42 42 42 42 41 39 37 34 32 33 36 37 39 41 42 41 41 40
22 23 24 26 27 29 30 32 34 35 37 38 39 40 40 42 43 44 45 46 47 49 50 51 52 52 52 54 56 57 58 58 58 56 54 53 51 49 46 45 45 44 43 43 44 46 49 50 49 47 45 46 49 49 47 44 44 43 41 40 39 40 40 40 39 40 40 40 40 40 40 39 37 36 34 33 34 37 38 39 41 42 41 41 40
23 24 26 27 29 30 32 34 35 37 38 39 40 41 42 43 44 45 46 45 46 47 49 50 51 50 49 50 50 51 53 55 55 53 50 49 47 45 44 44 45 45 45 45 46 47 48 47 45 44 44 44 47 48 48 46 46 46 44 42 41 40 39 37 37 38 38 37 39 40 39 38 36 35 33 34 36 38 39 40 41 41 40 41 40
24 25 27 29 30 32 34 35 37 38 40 41 43 43 44 44 45 46 47 46 46 46 47 48 49 48 48 48 47 46 48 50 51 50 49 47 46 45 45 45 44 46 46 45 45 46 46 45 44 44 44 42 43 46 48 47 46 47 46 44 42 40 37 36 36 37 36 35 37 39 39 38 36 34 33 35 37 38 38 39 40 41 41 41 41
26 27 29 31 32 34 36 37 38 40 41 42 44 46 47 47 47 47 48 48 48 48 47 48 47 45 44 46 47 47 47 47 45 44 44 46 47 48 47 45 43 43 43 43 44 46 46 45 45 45 44 41 40 44 48 48 46 47 46 44 42 40 37 36 35 35 35 34 35 38 39 38 37 35 35 36 38 38 38 39 39 41 42 42 42
28 29 31 33 34 36 37 38 40 41 42 43 44 45 47 50 51 51 50 49 49 49 49 49 48 45 43 43 44 46 48 47 43 41 41 42 44 45 45 44 43 43 42 41 43 46 46 45 44 44 44 42 41 45 49 47 45 45 45 43 42 39 37 35 33 32 33 34 35 36 38 38 37 36 35 36 37 38 39 39 40 41 42 42 42
29 30 32 33 35 36 38 39 40 41 42 43 44 44 46 48 51 53 54 53 52 51 50 49 48 46 44 42 40 41 43 43 42 41 40 39 40 41 42 44 44 43 41 40 42 44 44 43 42 42 42 41 41 43 46 44 43 43 42 41 40 38 35 33 31 30 31 33 34 35 36 37 38 36 35 35 37 38 39 40 41 42 43 42 40
29 30 31 33 34 36 37 38 39 40 41 42 43 44 45 46 47 50 52 54 55 54 52 50 48 46 46 45 43 41 39 38 39 40 40 40 39 39 40 42 43 41 38 37 38 39 40 39 40 41 40 39 38 40 41 40 40 40 39 39 39 36 33 31 29 29 30 31 33 34 35 37 37 36 35 35 36 37 39 41 42 42 43 41 38
28 29 31 32 34 35 36 37 38 39 41 42 42 43 44 45 45 46 48 49 51 53 52 50 48 47 47 47 45 43 40 38 37 38 39 39 39 38 38 40 40 39 36 34 34 35 37 37 38 39 37 36 37 39 38 37 37 38 38 38 37 35 31 28 27 28 29 30 32 34 35 36 36 35 35 36 37 37 39 40 41 42 41 38 36
28 30 31 32 34 35 36 37 38 39 40 41 42 43 43 44 44 45 45 46 47 49 50 49 49 48 48 46 44 43 42 40 37 37 37 37 36 35 36 36 36 36 36 35 34 34 35 36 36 35 34 35 37 38 37 36 36 35 35 35 35 32 29 27 26 27 28 29 31 32 33 35 35 35 35 36 37 38 39 39 41 42 40 37 36
29 30 31 32 34 35 37 38 38 39 40 41 41 42 42 42 42 42 43 44 45 46 48 49 49 49 49 46 43 41 41 41 40 38 36 34 32 31 33 35 36 37 37 36 35 35 35 34 34 33 33 34 35 35 35 34 33 31 31 32 31 29 26 24 24 24 26 28 30 31 32 34 35 35 36 36 37 38 39 40 41 40 38 36 35
28 29 31 32 34 36 37 38 38 38 39 39 40 40 41 41 41 41 42 42 43 44 45 46 47 47 47 46 42 39 40 41 42 40 37 35 33 32 34 36 37 38 37 35 35 34 34 33 33 32 31 30 30 29 29 29 28 28 28 28 27 26 24 22 22 23 25 27 29 31 32 33 34 35 36 36 37 38 39 41 41 40 38 37 35
28 29 30 32 33 34 35 36 37 37 38 38 38 38 39 39 39 39 39 39 41 41 42 43 44 44 43 42 40 38 39 41 41 40 38 35 34 33 34 34 35 35 34 33 33 33 33 32 31 29 28 26 25 25 25 25 25 25 25 25 24 22 20 20 21 23 24 26 29 30 31 32 33 34 35 35 36 38 40 41 41 40 38 36 32
28 29 30 31 32 33 34 34 35 35 36 36 36 36 36 36 36 36 37 38 39 39 40 40 41 41 40 38 35 36 38 39 38 36 35 35 34 33 32 32 32 32 31 32 32 32 31 29 28 27 26 25 24 24 24 24 23 22 20 19 18 18 17 18 20 22 23 25 27 29 30 31 32 33 35 36 36 36 38 40 39 37 33 30 27
27 28 29 30 31 32 32 32 33 33 33 33 34 34 34 34 35 35 35 36 37 37 38 38 39 39 38 35 32 31 33 34 33 32 32 32 33 33 31 30 30 30 30 30 31 30 28 27 26 26 25 24 23 22 21 20 19 18 16 14 14 14 16 18 19 21 22 23 26 28 29 31 32 33 34 34 34 34 37 38 36 32 28 25 24
26 27 28 28 29 30 30 30 30 30 31 31 32 32 32 33 33 33 33 34 34 35 36 37 37 37 36 33 30 29 28 28 28 28 29 29 30 30 29 29 28 28 28 29 29 28 26 25 24 23 22 22 21 19 17 16 15 14 13 12 12 12 14 17 18 19 20 21 24 26 28 30 31 31 31 31 32 34 35 33 29 26 23 22 22
24 24 25 26 26 27 27 28 28 28 29 29 30 30 30 31 31 32 32 32 32 32 34 35 35 36 35 32 29 27 26 25 25 26 27 27 27 27 27 27 27 27 26 26 26 25 24 22 21 20 20 19 18 16 14 12 11 11 11 11 11 11 12 14 16 18 19 20 22 24 25 27 28 28 29 30 30 29 27 25 23 22 22 22 22
21 22 22 22 23 24 24 25 26 27 27 28 28 28 29 30 30 31 31 31 30 30 31 32 33 33 33 31 28 26 25 24 24 25 25 25 25 26 26 27 27 26 24 23 23 22 21 19 18 17 16 16 15 13 11 10 9 8 8 9 10 10 10 11 13 15 17 18 19 20 21 23 25 26 27 26 24 22 22 22 22 22 23 23 24
18 19 19 20 21 22 22 23 24 25 26 27 27 27 27 28 29 30 30 30 29 29 29 29 29 29 30 29 27 25 24 23 23 23 23 24 24 24 25 26 26 25 24 22 21 20 19 17 15 14 13 13 12 11 9 8 7 7 6 7 8 8 8 8 10 12 14 14 15 16 18 20 22 22 21 21 20 20 21 22 22 23 24 25 25
16 17 18 19 19 20 22 23 23 24 25 26 26 26 27 27 28 28 28 28 28 28 28 27 26 26 26 25 24 24 23 23 22 22 22 22 22 22 23 23 23 23 23 22 20 19 17 15 14 12 12 11 11 10 8 7 6 5 5 5 5 6 6 5 5 7 8 10 11 15 17 18 18 18 18 19 19 18 19 21 22 23 23 23 23
14 15 16 17 18 19 20 21 22 23 24 24 25 25 26 26 26 27 27 27 27 27 26 26 25 24 23 23 22 22 22 21 21 21 21 21 20 20 21 20 20 21 22 21 19 17 16 15 14 13 12 11 10 9 8 7 6 5 5 5 4 3 2 1 1 4 6 8 10 12 13 15 16 17 17 17 17 18 19 21 21 21 20 20 20
13 13 14 16 17 18 19 20 21 22 22 23 23 24 24 25 25 25 26 26 27 27 26 25 25 24 23 21 21 20 20 19 19 19 19 19 19 19 19 19 20 21 21 19 17 16 16 16 15 14 13 12 11 9 9 8 7 7 7 7 7 6 5 4 4 5 7 8 8 9 11 13 15 16 16 17 17 18 19 19 19 19 20 20 19
12 12 13 15 16 17 18 19 20 20 21 22 22 23 23 23 24 24 24 25 25 26 26 25 24 24 23 22 21 20 19 18 18 17 18 18 18 18 18 18 18 19 19 17 15 15 16 16 16 15 13 12 11 10 9 8 8 8 8 9 10 9 8 8 8 8 9 9 9 10 11 12 13 14 16 16 16 16 17 17 18 18 18 18 18
11 12 13 14 15 17 18 19 19 20 20 20 21 22 22 23 23 23 23 24 24 25 25 25 24 23 22 22 21 20 19 19 18 18 18 18 17 17 17 17 16 16 16 15 14 14 15 15 15 14 14 13 12 11 10 9 9 9 8 9 9 9 9 9 9 9 10 10 11 11 11 12 12 13 14 14 14 14 15 15 16 16 16 16 16
12 13 14 15 16 17 18 18 19 20 20 20 21 21 21 22 23 23 23 23 23 23 24 24 23 22 21 21 21 20 20 19 19 18 18 18 17 17 16 15 14 13 12 12 12 12 12 12 12 12 12 12 12 12 11 10 10 10 10 9 9 9 9 9 9 10 10 10 10 11 11 11 11 11 11 12 13 13 13 14 14 15 15 15 14
Wind_Direction
261 262 266 266 271 276 279 283 287 296 304 313 324 325 323 327 330 330 329 327 327 327 324 321 319 316 314 310 305 302 299 297 296 296 296 297 296 296 295 292 291 292 291 290 290 289 287 286 287 289 288 286 287 287 285 280 274 271 269 270 270 268 268 267 266 272 278 278 276 277 277 277 279 280 281 281 282 283 282 281 280 278 276 274 269
261 258 258 259 264 270 276 286 295 306 315 320 325 324 322 326 330 331 330 329 329 330 329 329 328 327 325 320 315 312 309 307 306 306 305 305 304 303 301 299 298 298 297 297 297 295 293 291 292 294 293 290 289 288 287 285 279 273 269 268 268 268 267 268 268 271 276 278 277 278 280 280 280 281 281 281 282 282 280 279 278 276 276 274 271
252 247 248 248 255 267 283 301 311 318 324 325 324 322 322 325 330 332 332 332 333 333 333 334 333 333 331 328 324 321 318 317 315 314 313 311 310 309 307 305 304 303 302 302 302 300 297 296 297 298 296 292 291 291 289 287 283 278 275 270 269 269 268 268 269 270 273 277 278 278 279 279 279 281 282 282 282 280 278 277 276 275 274 273 271
231 230 233 235 239 255 275 292 303 310 313 312 314 315 317 321 325 327 328 329 330 331 331 331 331 330 328 326 324 322 320 319 318 317 315 313 311 310 308 307 306 305 305 305 304 303 301 300 300 301 298 294 294 294 291 288 286 283 280 276 272 272 271 269 269 270 272 275 278 277 277 278 280 282 282 281 281 279 278 278 277 274 273 271 268
210 211 214 216 216 220 239 259 270 280 288 296 304 310 314 316 318 320 321 323 324 325 325 325 326 325 323 322 321 320 319 318 317 315 313 311 310 309 308 307 306 306 306 306 306 305 303 302 303 302 298 295 295 295 293 291 288 285 283 280 277 275 274 271 271 271 271 273 277 279 278 278 280 281 280 279 279 279 278 277 276 273 270 267 266
201 204 208 211 214 223 246 262 270 281 291 300 307 313 317 318 319 320 321 322 323 323 324 324 324 324 323 322 321 320 319 318 316 315 313 311 309 308 307 306 306 305 305 305 304 304 303 303 303 302 299 297 297 296 294 292 289 286 284 283 281 279 276 274 273 272 272 273 276 278 278 278 278 278 279 278 277 277 276 274 273 271 268 266 265
201 205 209 215 226 241 258 271 282 295 303 310 316 320 322 322 322 323 323 325 326 327 327 327 327 326 325 323 322 320 319 318 316 313 312 311 309 308 307 306 306 305 304 304 303 303 303 302 302 302 301 300 300 298 296 293 290 287 285 284 282 280 278 277 275 273 272 273 274 275 275 276 276 277 278 278 276 274 271 269 270 271 270 268 264
193 196 204 217 238 255 273 291 304 314 318 320 321 322 323 323 323 324 326 327 329 329 328 327 325 324 322 321 319 318 317 316 315 313 312 311 310 308 308 307 307 306 305 305 305 304 304 304 303 303 302 301 300 299 297 295 292 289 288 285 282 280 278 277 276 274 273 272 272 273 273 274 274 274 275 274 271 269 269 270 272 273 271 268 263
180 186 205 241 268 290 310 322 326 327 326 324 324 324 324 324 324 324 325 325 325 325 324 322 321 319 317 316 315 314 314 313 313 312 311 311 310 309 308 307 307 306 306 305 305 305 305 304 304 303 303 302 301 299 298 296 292 290 289 285 281 279 277 276 275 274 274 272 272 272 271 271 271 269 269 270 270 271 274 273 270 270 268 265 261
180 192 219 267 294 313 321 322 323 322 321 321 321 322 321 320 319 319 319 320 320 320 319 318 317 315 313 312 311 311 311 312 312 311 311 311 310 309 308 307 307 306 305 305 304 304 304 304 303 303 303 302 302 301 300 298 295 292 291 287 281 276 274 273 273 272 271 271 271 271 269 269 269 267 267 271 273 273 272 269 267 267 263 257 254
204 225 256 285 298 309 311 311 314 315 316 317 317 317 317 316 315 315 315 316 316 317 316 315 314 313 312 311 311 311 311 312 312 312 312 312 312 311 309 308 307 306 306 305 304 304 304 303 302 302 302 302 303 302 301 300 299 296 294 290 284 277 271 269 269 269 269 269 270 271 268 268 269 268 267 270 271 270 270 268 267 264 258 252 250
243 265 283 296 302 308 311 313 315 316 316 317 317 317 316 315 315 314 314 314 314 314 314 313 313 313 312 312 312 312 312 313 313 313 314 315 315 313 311 310 309 308 307 306 306 305 304 304 303 302 302 302 302 302 301 301 300 298 296 293 288 282 275 269 266 266 266 267 270 270 269 268 269 268 267 267 269 271 271 268 265 262 257 254 252
268 282 294 302 305 309 312 313 315 315 315 316 316 315 315 314 314 313 313 313 313 312 312 312 313 313 313 313 312 312 313 314 314 313 313 314 314 313 311 310 309 308 308 308 307 307 307 306 306 305 304 304 303 301 300 300 299 298 296 293 289 286 281 275 269 265 264 265 267 269 269 269 268 268 268 268 269 270 267 264 264 261 257 257 259
279 288 296 302 305 308 311 312 313 314 314 314 314 314 313 313 313 312 312 313 313 313 313 312 312 313 313 313 312 311 312 313 313 313 312 312 312 312 310 309 308 307 307 307 307 307 308 307 307 306 306 305 304 303 302 301 299 297 294 292 290 288 285 281 275 268 263 261 262 266 269 268 268 270 271 269 268 267 266 266 267 265 263 266 266
286 295 301 306 309 312 313 314 314 315 315 314 314 314 314 314 314 313 313 314 314 314 314 313 313 313 313 313 312 311 311 313 313 313 313 313 313 312 311 309 308 307 306 306 306 306 306 306 306 306 305 305 305 305 304 302 299 296 293 291 290 289 287 284 280 274 269 263 261 263 268 269 269 271 272 270 269 269 269 270 271 269 267 264 256
301 306 309 313 315 316 316 316 316 316 315 314 314 314 314 314 315 314 314 314 313 313 313 313 313 313 313 313 312 310 310 312 313 313 313 314 314 312 311 310 308 306 305 304 304 304 304 304 304 305 304 304 305 306 305 303 298 295 292 290 289 288 287 286 283 279 275 270 264 263 267 269 269 271 274 271 269 268 266 264 262 257 250 245 241
310 313 315 316 316 316 315 315 314 313 313 312 312 313 313 313 314 313 312 312 311 312 311 311 311 311 311 311 311 309 308 309 311 311 311 312 312 310 309 309 307 305 304 303 303 302 301 301 302 302 302 302 303 304 304 302 298 295 293 291 290 288 288 288 285 281 279 275 269 266 267 267 268 271 273 270 267 265 259 255 253 246 238 234 234
314 316 317 316 315 315 314 313 313 312 312 312 312 312 312 312 312 312 312 311 310 310 310 308 308 308 309 309 309 308 306 306 307 309 309 309 309 308 307 306 304 304 304 303 302 301 299 299 299 300 300 300 301 302 301 299 296 294 292 291 289 288 289 289 286 285 284 279 273 269 268 268 268 270 271 268 265 262 256 254 252 244 237 234 232
316 316 316 315 314 314 313 313 313 312 312 312 311 312 311 311 311 311 310 310 309 308 308 308 307 306 307 307 306 306 305 304 304 305 306 306 306 305 305 303 301 301 302 301 300 299 299 299 299 299 300 300 300 300 299 296 293 291 291 289 285 286 290 290 287 286 285 281 276 274 271 269 269 269 269 268 265 260 258 257 251 242 239 237 233
316 314 313 311 311 311 310 311 311 310 311 311 310 311 310 310 310 309 309 309 308 307 307 307 306 305 304 305 304 303 303 302 302 302 302 303 303 304 304 302 301 300 300 298 297 297 297 298 298 299 299 300 299 298 297 295 292 290 288 284 282 286 292 292 287 285 284 281 279 278 275 273 271 269 268 268 265 260 258 256 249 243 242 238 232
311 309 308 307 307 308 308 308 309 309 309 309 309 310 310 310 310 310 309 309 308 307 307 307 306 304 303 304 303 303 303 303 302 302 302 302 301 302 301 301 301 301 300 298 296 296 296 296 297 297 298 298 298 297 295 294 292 288 284 282 283 288 290 288 285 283 281 280 280 278 277 275 273 270 268 267 265 261 257 254 248 244 241 236 229
306 306 306 306 306 307 307 308 308 308 309 309 309 310 310 310 311 311 311 311 310 310 309 309 309 307 306 305 305 305 305 305 305 304 304 303 302 302 301 300 300 301 301 298 297 296 295 295 295 296 296 296 295 294 293 293 291 287 284 282 284 286 285 282 282 280 278 278 278 277 276 275 273 271 269 267 264 259 256 253 247 242 240 237 233
305 305 306 307 308 308 308 308 308 309 310 311 311 311 312 313 313 313 313 313 313 312 312 312 312 310 309 308 308 307 307 307 307 306 305 304 303 302 301 300 300 300 299 298 297 296 295 295 295 295 295 294 293 293 292 290 288 286 284 282 282 283 281 277 275 275 275 275 274 274 275 274 273 271 270 268 264 259 255 252 247 242 237 232 229
308 309 309 309 309 309 309 310 311 312 314 314 314 315 315 315 315 315 315 315 314 314 313 313 312 311 310 309 309 308 308 308 308 308 307 305 303 302 301 300 299 299 297 296 295 295 295 295 295 294 293 292 292 292 291 288 286 284 284 284 284 283 280 274 271 271 272 271 270 271 273 273 271 270 270 269 265 259 253 247 241 235 231 226 223
308 308 308 308 309 310 312 314 315 316 317 317 317 317 317 317 316 316 315 315 314 314 313 312 312 311 310 310 309 309 308 308 308 308 308 305 302 300 300 299 298 298 297 296 295 295 295 296 295 294 292 291 293 293 290 288 287 286 286 285 284 282 277 273 271 270 268 267 267 268 270 271 271 272 272 267 260 250 242 236 231 228 225 221 219
304 305 308 311 313 315 316 317 317 317 317 317 317 317 317 317 316 315 316 315 315 314 313 313 313 312 311 311 310 309 309 308 308 309 309 307 304 302 302 301 300 300 299 298 298 298 298 297 296 296 295 295 295 294 291 288 286 286 286 285 284 282 278 274 270 267 266 266 266 267 269 271 272 271 267 257 247 240 236 232 227 224 221 218 215
306 310 314 316 318 318 318 318 317 317 317 317 317 317 317 317 316 316 317 317 316 316 315 315 314 314 314 313 312 311 310 309 309 310 311 309 307 306 305 305 304 303 301 299 299 299 298 297 297 296 296 296 296 295 294 293 290 287 286 285 284 283 281 277 272 267 266 267 266 267 270 271 269 264 257 247 239 236 235 231 225 219 215 213 211
314 317 318 318 319 318 318 318 317 317 318 318 318 318 317 317 317 317 317 318 317 316 316 315 314 315 315 314 313 313 312 310 311 312 311 309 308 307 307 305 304 302 300 298 298 298 297 296 296 295 294 295 295 294 296 298 296 294 292 290 288 286 284 280 273 268 267 266 266 266 267 265 261 255 249 242 236 232 231 227 222 218 214 211 208
318 319 319 319 319 318 318 319 318 318 318 318 318 318 318 318 318 317 317 318 317 316 314 314 314 315 315 315 315 315 313 312 312 313 312 309 307 304 303 303 301 299 298 297 298 297 295 293 292 291 290 292 290 289 293 297 295 294 295 294 292 289 285 281 275 270 268 266 263 262 260 257 253 249 243 236 231 229 227 223 219 215 211 209 207
319 319 319 319 319 319 320 320 320 320 320 319 319 318 318 318 317 317 317 316 315 314 313 313 314 316 316 316 316 316 315 315 316 315 314 311 307 303 301 300 299 298 298 298 297 295 292 291 289 288 288 289 284 283 290 294 292 291 293 294 292 291 288 282 277 273 271 267 261 257 254 251 248 243 235 229 227 225 222 219 217 214 209 206 202
318 319 320 320 320 321 321 320 320 320 320 320 319 318 317 317 316 316 316 315 315 314 313 314 316 318 318 318 318 318 319 319 317 313 309 307 306 305 304 303 301 299 299 299 297 293 290 289 289 287 287 287 282 281 288 291 288 289 292 293 292 291 288 283 279 275 272 267 260 254 250 247 244 238 232 229 228 225 218 213 212 211 209 206 200
319 320 320 320 321 320 320 320 320 320 320 320 320 319 318 317 316 316 316 316 315 315 314 314 317 319 321 321 320 320 322 322 317 309 303 303 305 307 307 307 305 303 301 299 295 292 290 289 288 286 286 286 282 282 288 291 289 289 291 291 290 288 285 283 283 277 270 265 259 252 246 242 239 235 231 230 227 222 215 209 205 203 202 200 196
319 319 319 319 319 319 319 319 319 319 320 319 319 319 319 319 318 317 317 316 315 315 315 316 317 319 321 322 320 319 322 323 319 313 310 309 309 309 308 307 305 303 301 297 293 290 290 289 287 286 286 285 282 284 290 292 290 289 289 288 288 287 284 284 283 276 268 263 258 250 243 239 237 233 229 228 225 219 212 207 202 199 197 193 190
316 317 317 318 317 317 318 318 318 319 319 319 319 319 319 319 319 318 318 317 316 316 316 317 319 320 322 322 322 322 324 325 322 318 317 315 313 311 309 306 305 303 301 297 294 292 291 290 289 290 290 288 286 290 293 291 288 289 289 288 287 287 285 282 277 271 266 261 255 248 240 236 235 231 224 221 219 214 209 205 201 198 195 192 190
314 315 316 317 317 317 317 317 318 319 319 320 320 320 320 320 319 318 318 317 316 315 314 315 318 321 322 322 323 325 327 329 327 323 320 319 318 317 313 308 306 306 304 302 299 297 296 296 296 297 297 294 293 295 294 290 289 291 290 288 287 286 285 281 274 269 265 260 253 246 238 232 231 229 223 218 214 208 204 202 200 198 195 194 193
314 315 316 316 317 317 318 319 320 321 322 322 322 322 322 321 321 319 318 316 315 315 314 314 317 319 320 323 326 327 327 329 329 326 323 324 323 319 314 310 309 309 308 307 307 305 302 302 301 302 302 300 297 297 296 293 293 295 293 288 285 284 282 279 275 271 265 257 250 243 234 226 223 222 219 216 212 209 205 201 199 197 195 195 194
316 317 317 318 319 320 322 323 324 324 325 324 324 323 323 322 320 319 318 317 317 317 316 316 317 318 319 323 329 330 328 327 328 328 328 330 329 324 318 315 314 313 312 311 311 310 308 306 305 306 306 303 300 298 297 296 297 297 294 288 283 280 279 280 278 274 266 254 244 237 230 223 220 218 215 210 207 205 202 198 194 194 194 196 195
317 318 319 321 323 324 325 325 326 326 326 326 325 324 323 322 322 321 320 319 318 317 316 316 318 320 321 324 329 333 330 327 328 330 332 334 334 329 323 320 318 317 316 314 314 314 312 310 309 309 308 305 302 300 300 300 301 300 295 287 281 279 280 281 278 272 263 251 240 233 227 222 219 217 214 209 205 202 197 194 193 193 194 196 195
318 321 323 325 326 326 326 326 327 327 327 327 326 326 324 323 322 321 319 318 316 316 318 319 320 322 324 326 330 333 331 327 328 330 332 333 334 332 328 325 323 322 321 321 320 320 318 316 315 314 313 311 310 309 307 307 306 302 295 288 284 284 284 281 274 265 254 243 235 228 222 219 217 215 210 207 205 202 197 194 196 198 197 195 191
321 324 326 326 326 327 327 328 328 328 328 327 327 326 325 324 323 321 320 320 319 319 321 321 321 321 323 326 330 331 327 324 326 329 330 331 333 332 331 330 328 327 327 326 326 326 325 324 323 321 320 319 317 315 314 312 308 304 298 294 292 291 288 281 272 263 250 238 228 220 215 213 212 209 205 204 204 203 199 196 198 200 197 191 185
324 325 326 327 328 329 329 329 329 329 329 329 329 329 329 328 326 324 322 321 321 320 320 320 320 320 321 324 327 327 324 322 325 328 330 331 332 333 334 334 333 332 331 329 329 331 332 332 330 329 329 328 324 320 318 314 310 307 305 304 301 292 282 272 262 253 244 232 222 215 212 210 207 205 204 204 203 201 199 197 197 196 192 187 185
325 326 327 329 329 329 329 330 330 330 331 332 334 334 333 330 328 326 323 322 322 321 320 320 320 320 320 322 324 324 323 324 326 328 330 332 333 335 336 337 336 335 333 332 332 334 335 336 336 336 337 337 333 328 323 319 316 315 315 313 305 291 278 265 250 240 234 227 220 214 210 207 205 206 206 205 201 198 196 195 194 191 189 188 189
325 327 328 328 329 329 330 331 332 333 334 336 337 337 336 334 331 329 326 325 324 324 323 322 321 321 320 321 323 324 325 327 329 331 332 334 335 336 337 338 337 336 334 332 332 333 334 336 338 339 340 340 337 334 332 331 330 329 327 321 310 298 284 269 252 241 235 227 220 215 211 207 205 204 202 198 195 193 192 191 190 189 188 189 190
325 327 328 329 330 333 334 334 335 336 337 338 338 339 340 339 337 334 331 330 329 328 327 325 324 323 322 322 324 325 327 330 332 333 334 335 337 338 338 338 337 337 336 334 333 333 334 335 336 339 343 345 344 344 345 347 348 347 341 328 316 307 295 277 257 246 239 230 221 216 210 202 196 194 192 189 188 187 187 187 188 188 188 188 188
326 328 331 333 336 337 338 339 340 339 339 340 340 341 344 343 342 340 339 337 335 334 332 330 329 328 326 325 326 328 330 333 335 336 337 339 340 340 340 341 341 341 342 341 339 337 336 335 338 345 351 352 353 356 359 2 7 9 3 346 331 321 310 288 263 249 243 234 219 205 194 186 183 185 186 184 183 185 185 185 185 184 185 185 186
330 334 336 338 339 341 342 342 342 341 342 342 342 342 344 346 346 346 345 343 341 340 339 337 337 335 333 331 331 332 334 336 338 340 342 343 344 344 344 346 347 348 348 348 347 346 345 345 349 356 360 359 1 5 9 17 28 34 32 23 4 346 332 310 273 244 229 215 198 186 181 180 181 184 184 182 182 184 183 181 181 181 181 182 183
335 338 339 339 340 342 342 342 342 342 343 343 343 343 344 346 348 348 348 347 346 345 344 343 343 342 341 339 339 340 341 342 344 346 346 346 348 350 350 352 354 354 354 354 356 359 2 4 6 10 10 9 10 14 19 28 42 53 62 69 64 43 15 337 226 195 187 184 182 181 182 183 182 181 181 180 178 176 175 176 177 178 179 180 180
336 337 338 338 340 340 340 340 341 341 341 342 343 343 344 346 347 348 349 350 350 349 348 348 347 346 346 346 346 347 348 349 349 349 349 348 350 354 356 357 359 358 357 358 3 9 14 17 19 20 21 21 22 26 31 38 50 63 77 89 93 92 96 117 145 158 163 169 174 179 183 183 180 177 175 173 170 168 170 172 173 173 175 176 176
332 334 335 336 337 338 337 336 336 337 338 340 341 341 342 344 345 347 348 350 351 351 351 351 350 349 348 347 347 348 349 349 348 349 349 348 349 352 355 356 357 358 359 2 7 12 14 16 17 20 24 28 31 36 41 47 56 68 79 90 97 101 107 119 131 141 148 154 160 165 170 173 172 168 165 165 165 165 166 168 169 169 172 175 177
325 327 329 331 332 333 332 331 331 331 332 334 336 338 340 341 342 344 346 348 349 350 351 351 352 351 350 348 347 346 345 345 344 344 344 344 344 345 347 347 348 352 356 360 4 7 8 10 13 17 21 27 34 41 48 56 65 73 79 87 94 101 109 117 125 133 139 143 147 150 154 158 161 161 160 160 162 162 163 166 169 171 175 179 183
316 318 321 323 325 326 325 325 325 325 325 327 331 334 336 337 338 339 341 343 345 347 348 348 349 351 351 351 350 347 345 344 344 342 342 342 341 342 343 344 344 346 348 350 352 356 358 1 7 12 17 25 33 40 48 57 66 73 78 84 91 98 105 112 120 126 130 134 138 142 145 150 155 157 158 159 162 164 167 169 172 174 178 182 185